Temperature
3 3 3 3 3 3 2 2 2 2 2 2 2 2 2 2 2 2 2 2 2 2 2 2 2 2 2 2 2 2 2 2 2 3 3 3 3 3 3 3 3 3 3
2 2 2 2 2 2 2 2 2 2 2 2 2 2 2 2 2 1 1 1 1 1 1 1 1 1 2 2 2 2 2 2 2 2 2 2 2 2 2 2 2 2 2
1 1 1 1 1 1 1 1 1 1 1 1 1 1 1 1 1 1 1 1 1 1 1 1 1 1 1 1 1 1 1 1 1 1 1 2 2 2 2 1 2 2 2
1 1 1 1 1 1 1 1 1 1 1 1 1 1 0 0 0 0 0 0 0 0 -0 0 0 0 0 0 0 0 0 0 0 0 1 1 1 1 1 1 1 1 1
0 0 0 0 0 -0 -0 -0 -0 -0 -0 -0 -0 -0 -0 -0 -0 -0 -1 -1 -1 -1 -1 -1 -1 -0 -0 -0 -0 -0 -0 -0 -0 -0 -0 -0 0 0 1 0 0 0 0
-1 -1 -1 -1 -1 -1 -1 -1 -1 -1 -1 -1 -1 -1 -1 -1 -1 -1 -1 -1 -1 -1 -1 -1 -1 -1 -1 -1 -1 -1 -1 -1 -1 -0 -1 -1 -0 -0 -0 -0 -0 -0 -1
-1 -1 -1 -1 -1 -1 -2 -2 -2 -2 -2 -2 -2 -2 -2 -2 -2 -2 -2 -2 -2 -2 -2 -2 -2 -2 -2 -2 -2 -2 -2 -1 -1 -1 -1 -1 -1 -1 -1 -1 -1 -1 -1
-2 -2 -2 -2 -2 -2 -2 -2 -2 -2 -2 -2 -2 -2 -2 -2 -2 -2 -3 -3 -3 -3 -3 -3 -3 -2 -2 -2 -2 -2 -2 -2 -2 -2 -2 -1 -1 -1 -1 -1 -1 -1 -1
-3 -3 -3 -3 -3 -3 -3 -3 -3 -3 -3 -3 -3 -3 -3 -3 -3 -3 -4 -4 -4 -4 -4 -3 -3 -3 -3 -3 -3 -3 -3 -3 -2 -2 -2 -2 -2 -2 -2 -2 -2 -2 -2
-4 -4 -4 -4 -4 -4 -4 -4 -4 -4 -4 -4 -4 -4 -4 -4 -4 -4 -4 -5 -5 -5 -4 -4 -4 -4 -4 -4 -4 -4 -4 -3 -3 -3 -3 -3 -3 -3 -3 -3 -3 -3 -3
-5 -5 -5 -5 -5 -5 -5 -5 -5 -5 -5 -5 -5 -4 -5 -4 -4 -5 -5 -5 -5 -5 -5 -5 -5 -5 -5 -5 -5 -4 -4 -4 -4 -4 -4 -4 -4 -4 -4 -4 -4 -4 -4
-6 -6 -5 -5 -5 -5 -5 -5 -6 -6 -6 -6 -6 -5 -5 -5 -5 -5 -5 -5 -6 -6 -6 -6 -5 -5 -5 -5 -5 -5 -5 -5 -5 -5 -5 -4 -4 -4 -4 -4 -4 -4 -4
-7 -7 -6 -6 -6 -6 -6 -7 -7 -7 -7 -7 -7 -7 -6 -6 -6 -6 -6 -6 -6 -6 -6 -6 -6 -6 -6 -6 -6 -6 -6 -6 -6 -6 -5 -5 -5 -5 -5 -5 -5 -5 -5
-8 -7 -7 -7 -7 -7 -7 -7 -8 -8 -8 -8 -8 -8 -7 -7 -7 -7 -7 -7 -7 -7 -7 -7 -7 -7 -7 -7 -7 -7 -7 -7 -6 -6 -6 -6 -5 -6 -6 -5 -5 -6 -6
-9 -8 -8 -8 -8 -8 -8 -8 -8 -8 -8 -9 -8 -8 -8 -8 -8 -8 -8 -7 -7 -7 -7 -7 -7 -7 -7 -7 -7 -7 -7 -7 -7 -7 -7 -6 -6 -6 -6 -6 -6 -6 -7
-9 -9 -9 -9 -9 -9 -9 -9 -9 -9 -9 -9 -9 -9 -9 -9 -9 -8 -8 -8 -8 -8 -8 -8 -8 -8 -8 -8 -8 -8 -8 -8 -8 -8 -7 -7 -7 -7 -7 -7 -7 -7 -7
-10 -10 -10 -10 -10 -11 -11 -11 -10 -10 -10 -10 -10 -10 -10 -10 -9 -9 -9 -9 -8 -8 -8 -9 -9 -9 -8 -8 -9 -9 -9 -8 -8 -8 -8 -8 -8 -8 -8 -8 -8 -8 -8
-11 -11 -11 -11 -11 -11 -11 -12 -12 -11 -11 -11 -11 -11 -11 -10 -10 -10 -10 -9 -9 -9 -9 -9 -9 -9 -9 -9 -9 -9 -9 -9 -9 -9 -9 -9 -8 -8 -8 -8 -8 -8 -9
-12 -12 -12 -12 -12 -12 -12 -12 -12 -12 -12 -12 -12 -11 -11 -11 -11 -11 -10 -10 -10 -10 -10 -10 -10 -10 -10 -10 -9 -9 -9 -9 -9 -9 -9 -9 -9 -9 -9 -9 -9 -9 -9
-12 -12 -12 -12 -12 -12 -13 -13 -13 -13 -13 -13 -13 -12 -12 -12 -12 -11 -11 -11 -11 -11 -11 -11 -10 -10 -10 -10 -10 -10 -10 -10 -10 -10 -10 -10 -10 -10 -10 -10 -10 -10 -10
-13 -13 -13 -13 -13 -13 -13 -13 -13 -13 -13 -13 -13 -13 -13 -13 -13 -12 -12 -12 -12 -12 -12 -11 -11 -11 -11 -11 -10 -10 -10 -10 -10 -10 -10 -10 -10 -10 -10 -10 -10 -10 -10
-13 -13 -14 -14 -14 -14 -14 -14 -14 -14 -14 -14 -14 -13 -13 -13 -13 -13 -13 -13 -13 -12 -12 -12 -12 -12 -11 -11 -11 -11 -11 -11 -11 -11 -11 -11 -11 -11 -10 -10 -10 -11 -11
-14 -14 -14 -14 -14 -14 -14 -14 -14 -14 -14 -14 -14 -14 -14 -14 -14 -14 -14 -13 -13 -13 -13 -13 -12 -12 -12 -12 -12 -12 -11 -11 -11 -11 -11 -11 -11 -11 -11 -11 -11 -11 -11
-15 -15 -15 -15 -15 -15 -15 -15 -15 -15 -15 -15 -14 -14 -14 -14 -14 -14 -14 -14 -14 -13 -13 -13 -13 -13 -13 -12 -12 -12 -12 -12 -12 -12 -12 -12 -12 -11 -12 -12 -11 -11 -11
-15 -15 -15 -15 -15 -15 -15 -15 -15 -15 -15 -15 -15 -15 -15 -15 -15 -14 -14 -14 -14 -14 -14 -14 -13 -13 -13 -13 -13 -12 -12 -12 -12 -12 -12 -12 -12 -12 -12 -12 -12 -12 -12
-15 -15 -15 -15 -15 -15 -16 -16 -16 -16 -16 -15 -15 -15 -15 -15 -15 -15 -15 -15 -14 -14 -14 -14 -14 -13 -13 -13 -13 -13 -13 -13 -12 -12 -12 -13 -13 -12 -12 -12 -12 -12 -12
Wind_Speed
5 5 5 6 6 6 6 7 6 6 7 7 7 7 7 7 7 7 7 7 7 7 6 7 8 7 5 6 6 6 7 7 8 6 5 5 7 7 7 8 9 9 10
5 5 5 6 6 6 6 6 6 6 7 7 7 7 7 7 8 8 8 8 9 9 8 8 8 6 7 6 6 7 7 8 8 8 6 5 7 8 8 8 8 9 9
5 5 5 5 6 6 6 6 6 6 7 7 8 8 8 8 8 8 8 9 9 9 9 9 8 8 8 7 8 7 6 6 7 7 7 5 5 6 7 7 7 7 9
5 5 5 5 6 6 6 6 6 6 7 7 7 8 8 8 8 8 8 9 9 9 9 9 9 9 9 9 8 9 8 7 7 7 6 6 5 6 6 7 6 6 6
5 5 6 5 5 5 5 5 6 6 6 7 7 7 7 8 8 8 8 9 9 9 9 9 9 10 10 9 8 8 8 8 7 7 7 6 6 5 7 6 7 6 6
5 5 5 5 5 5 5 5 5 6 6 6 7 7 8 7 8 10 9 9 9 9 9 9 9 10 11 12 12 11 10 10 9 9 8 8 9 8 7 6 6 6 6
5 5 4 4 4 5 5 5 5 6 6 6 7 7 8 8 10 11 12 9 9 9 9 8 7 8 9 9 10 11 12 14 13 10 10 11 10 9 8 8 8 8 7
5 5 4 4 4 4 5 5 5 5 5 6 7 7 7 8 10 11 11 9 8 8 9 9 9 8 8 8 8 9 10 11 12 11 10 10 9 8 9 8 8 7 5
5 5 5 5 5 5 5 6 5 5 5 5 6 6 7 7 9 10 9 7 7 8 8 8 9 9 10 10 9 9 9 9 10 12 12 11 11 11 9 6 6 6 6
5 5 5 4 5 5 6 5 4 4 5 4 5 5 6 7 8 9 9 6 6 6 6 7 10 10 10 11 9 9 9 8 7 8 8 9 10 10 11 9 8 7 5
5 4 4 4 5 5 5 4 3 4 4 4 5 5 5 6 7 8 9 6 6 6 6 6 7 10 12 12 11 9 10 8 7 7 7 7 6 7 8 9 8 8 7
4 4 4 4 3 3 3 3 3 3 3 4 4 4 4 4 6 7 9 9 7 6 6 6 6 9 11 12 10 10 10 8 6 6 6 6 6 7 7 8 8 8 7
4 4 4 4 3 3 2 2 2 2 2 3 3 3 3 3 4 7 9 10 10 7 6 8 9 9 9 9 10 10 8 6 6 6 7 6 6 5 5 5 6 6 6
4 4 4 3 3 3 2 2 2 2 3 3 3 4 4 4 4 4 5 6 8 7 6 7 9 9 8 8 7 7 6 6 6 6 6 5 4 4 4 4 5 5 4
4 4 3 3 3 3 3 3 3 3 4 4 4 4 4 5 5 6 6 5 6 6 5 4 5 5 5 5 5 5 5 5 6 5 5 4 4 5 4 4 4 4 5
4 4 3 3 3 3 3 3 4 5 6 6 6 6 5 7 7 8 8 8 7 6 5 5 5 5 6 5 5 5 5 5 5 5 5 5 5 5 4 4 4 5 5
4 4 3 3 3 3 3 3 4 4 5 5 5 6 6 7 7 7 7 6 6 6 5 5 5 5 5 5 5 5 5 5 4 5 5 5 5 4 4 4 5 5 5
4 4 3 3 3 3 3 3 3 4 4 4 5 6 7 7 7 6 6 4 3 3 4 4 4 4 4 5 5 5 4 4 4 4 5 5 5 5 5 5 5 5 5
3 3 3 3 3 3 3 3 3 4 4 4 4 5 7 7 6 5 4 3 3 3 3 4 4 4 4 4 4 4 4 5 4 4 4 5 5 5 5 5 5 6 6
3 4 4 3 3 3 3 3 3 3 4 4 4 4 5 5 4 3 3 3 3 3 3 3 3 3 3 4 4 4 4 4 5 5 5 5 5 5 5 6 5 5 6
3 3 4 3 3 3 3 3 3 3 4 4 4 5 6 4 4 4 3 3 3 3 3 3 3 4 4 4 4 4 4 4 4 5 5 5 5 5 5 5 5 5 5
3 3 3 3 3 3 3 3 3 4 4 4 4 5 7 4 3 3 3 3 3 3 3 3 4 4 4 4 4 4 4 5 4 4 4 5 5 5 5 5 5 5 5
2 3 3 3 3 4 4 3 3 4 4 4 4 4 4 4 4 4 4 4 3 3 4 4 4 4 4 4 4 4 5 5 5 5 5 5 5 5 5 5 6 6 6
2 3 3 3 3 3 3 4 4 4 4 4 4 4 4 4 4 4 4 4 4 4 4 4 4 5 6 6 5 6 6 7 6 6 6 6 5 5 5 5 6 6 6
3 3 3 3 3 4 4 4 4 4 4 4 4 4 4 4 4 4 4 4 4 4 5 5 5 5 6 7 7 7 8 9 8 6 6 5 5 5 5 5 5 5 6
3 3 3 3 3 4 4 4 4 5 4 4 4 4 5 5 5 5 4 4 4 4 5 5 6 7 8 7 8 9 9 9 9 8 6 5 5 5 5 5 6 6 6
Wind_Direction
232 231 235 223 219 218 217 218 219 217 211 209 208 210 212 214 214 215 218 218 222 227 229 230 231 230 229 226 227 229 229 229 240 246 237 231 226 226 229 231 234 229 230
240 233 237 233 221 221 224 223 222 219 216 214 211 212 214 217 217 218 220 220 222 226 228 230 233 231 231 231 227 230 230 228 233 242 241 231 234 229 228 230 235 233 233
245 236 236 238 229 229 230 228 226 225 223 218 214 214 216 219 220 221 222 223 226 229 228 229 230 229 232 231 228 228 231 230 231 236 240 236 238 230 227 234 236 237 236
249 241 239 243 239 236 235 231 229 229 227 224 221 220 220 221 223 222 222 225 227 230 230 231 231 228 232 232 231 228 227 229 230 232 237 234 234 231 224 229 235 236 237
252 247 246 249 245 237 235 235 233 232 231 227 226 226 225 224 223 224 223 224 227 230 232 232 232 231 234 234 234 232 227 228 231 232 236 234 232 227 225 225 234 241 243
260 257 258 257 250 241 238 236 236 234 234 230 227 227 227 229 231 229 227 226 227 229 233 235 236 232 233 237 240 240 236 231 230 232 234 235 234 234 231 224 226 234 246
266 268 269 265 257 251 247 239 236 236 235 236 235 232 233 236 236 234 232 230 228 228 230 232 235 234 233 237 241 242 242 240 235 234 237 237 235 230 227 223 223 231 244
273 277 279 276 271 259 251 245 243 241 237 240 241 240 240 242 239 238 236 231 233 233 232 231 233 235 232 234 238 239 241 241 237 236 241 242 240 232 228 229 228 236 248
275 281 283 280 273 262 251 249 249 246 245 248 246 242 243 248 243 240 236 235 235 237 237 235 233 237 237 234 234 238 243 243 237 239 245 246 244 238 228 225 217 218 238
289 290 288 281 273 268 259 257 259 250 249 252 254 250 248 250 246 239 233 232 235 237 237 236 235 238 240 234 234 236 241 245 237 235 240 242 239 234 225 221 221 219 230
307 303 299 291 283 278 276 271 259 255 254 254 257 258 254 251 251 241 234 231 232 235 236 237 236 237 241 239 241 241 242 247 243 236 236 238 234 228 225 227 225 223 223
323 318 314 308 301 291 286 280 265 253 252 253 255 264 263 255 252 243 239 238 238 237 239 241 240 237 241 243 243 244 244 243 242 236 232 231 230 229 228 224 226 230 234
327 322 319 319 313 306 290 281 268 255 251 259 260 263 270 264 257 248 245 244 242 241 242 242 243 242 241 242 243 244 237 234 233 232 232 231 231 231 225 219 218 224 229
330 326 325 325 325 322 307 290 273 260 259 264 266 269 274 266 263 259 254 252 249 247 250 244 241 238 236 240 241 238 232 232 233 234 234 234 225 217 220 220 220 214 222
332 331 332 330 327 322 316 305 292 276 272 275 276 274 272 268 267 273 272 260 250 248 243 240 237 232 229 230 234 236 234 229 234 237 232 223 223 222 222 218 217 218 222
331 333 335 332 330 323 321 321 317 307 302 296 292 290 286 283 282 278 275 270 255 246 241 232 231 230 231 230 231 232 233 231 230 229 227 222 220 218 219 215 210 216 224
325 324 326 328 326 324 321 319 320 323 318 314 310 306 302 301 293 284 281 270 260 243 236 233 231 231 231 231 231 231 233 233 231 228 227 222 220 217 216 219 217 220 226
326 326 326 321 319 316 314 313 312 314 317 319 321 320 321 317 311 304 297 283 259 243 238 236 234 233 232 231 231 231 233 231 230 229 226 223 218 216 216 220 222 224 228
327 327 328 327 323 319 317 315 315 314 313 316 321 322 327 325 322 323 315 273 258 252 244 243 245 243 240 237 238 238 235 233 230 230 231 227 221 219 221 221 223 225 229
324 329 334 331 329 326 321 319 317 314 312 313 315 321 325 323 317 320 318 296 278 270 264 256 252 250 247 243 240 240 240 235 229 229 233 230 225 222 222 222 222 224 228
323 328 335 332 331 328 323 318 314 310 309 312 315 319 323 318 312 310 309 306 296 286 278 271 266 258 253 251 247 244 245 247 238 233 234 231 225 225 225 224 223 225 226
316 320 325 324 324 323 321 317 313 310 311 311 313 318 324 320 312 307 305 304 300 294 288 278 273 269 261 256 254 250 247 248 248 240 237 231 225 224 223 221 219 220 221
309 315 320 320 319 319 323 319 314 311 312 312 314 316 320 318 315 312 308 304 300 299 297 288 278 279 279 271 261 252 248 248 251 249 244 237 228 224 222 221 220 221 219
305 310 314 315 313 310 308 309 309 309 310 311 312 312 313 312 308 306 305 304 304 300 296 289 280 276 279 280 273 263 258 255 252 249 243 237 232 230 226 223 223 221 219
300 303 304 303 303 302 302 302 303 304 306 306 306 307 307 306 305 304 303 301 299 296 294 291 285 281 278 277 274 270 263 260 257 250 241 235 228 226 225 225 224 224 221
298 298 297 296 294 294 294 294 295 298 299 299 299 298 298 298 297 298 298 297 296 293 290 287 285 285 285 283 277 270 266 262 259 254 244 236 227 225 222 223 223 222 220
Height
1476 1477 1478 1478 1480 1481 1482 1483 1484 1484 1485 1486 1487 1489 1490 1491 1493 1494 1495 1496 1497 1499 1500 1501 1503 1505 1506 1507 1508 1510 1511 1513 1513 1513 1515 1516 1517 1518 1519 1520 1521 1522 1522
1472 1472 1473 1474 1474 1475 1476 1477 1478 1479 1479 1480 1481 1483 1484 1485 1486 1488 1489 1490 1491 1492 1494 1495 1497 1498 1499 1501 1502 1503 1505 1506 1507 1507 1508 1510 1511 1512 1513 1514 1515 1516 1516
1467 1467 1468 1468 1469 1469 1470 1472 1472 1473 1473 1474 1475 1476 1478 1479 1480 1481 1482 1483 1484 1486 1487 1489 1490 1492 1493 1494 1495 1497 1498 1500 1501 1502 1502 1503 1504 1506 1507 1508 1509 1509 1510
1462 1462 1463 1463 1463 1464 1465 1466 1466 1467 1468 1468 1469 1470 1471 1472 1473 1475 1476 1477 1478 1479 1481 1482 1484 1485 1486 1488 1489 1490 1492 1493 1495 1496 1496 1497 1498 1499 1500 1501 1502 1503 1504
1457 1457 1457 1458 1458 1459 1459 1460 1460 1461 1462 1462 1463 1464 1465 1466 1467 1468 1469 1470 1471 1472 1474 1475 1477 1478 1479 1481 1482 1483 1485 1486 1488 1488 1489 1490 1491 1492 1493 1494 1495 1496 1497
1453 1453 1453 1453 1453 1453 1453 1454 1454 1455 1456 1456 1457 1457 1458 1459 1460 1462 1463 1464 1465 1466 1467 1468 1470 1471 1472 1474 1475 1476 1478 1480 1480 1481 1482 1483 1484 1485 1487 1488 1489 1490 1490
1449 1448 1448 1448 1448 1448 1448 1448 1449 1449 1450 1450 1451 1451 1452 1453 1454 1455 1456 1457 1458 1459 1460 1461 1462 1463 1465 1466 1468 1469 1471 1472 1474 1475 1475 1475 1477 1479 1480 1481 1482 1483 1483
1444 1443 1443 1443 1443 1443 1443 1443 1443 1443 1444 1444 1445 1445 1445 1446 1447 1449 1450 1451 1451 1452 1453 1454 1455 1456 1458 1460 1461 1462 1463 1464 1466 1467 1469 1469 1471 1472 1473 1475 1475 1476 1477
1440 1439 1439 1439 1439 1438 1438 1438 1438 1438 1438 1438 1439 1439 1439 1440 1441 1442 1444 1444 1445 1445 1447 1448 1449 1450 1451 1453 1454 1454 1455 1456 1458 1460 1461 1462 1464 1465 1466 1468 1468 1469 1469
1436 1435 1435 1434 1434 1434 1434 1433 1433 1433 1433 1433 1433 1433 1434 1434 1435 1436 1438 1438 1438 1439 1440 1441 1442 1443 1445 1446 1447 1447 1448 1449 1451 1452 1454 1455 1456 1457 1458 1460 1461 1462 1462
1432 1431 1431 1430 1430 1429 1429 1428 1428 1428 1428 1428 1428 1428 1428 1429 1429 1431 1432 1432 1432 1433 1434 1434 1435 1436 1438 1439 1440 1440 1441 1443 1444 1445 1446 1447 1448 1450 1451 1452 1454 1455 1456
1428 1427 1426 1426 1425 1425 1424 1424 1424 1423 1423 1423 1423 1423 1423 1424 1424 1425 1426 1427 1427 1428 1428 1428 1429 1430 1431 1432 1433 1434 1436 1437 1437 1438 1439 1440 1441 1443 1444 1445 1447 1448 1449
1424 1423 1422 1421 1421 1420 1420 1420 1419 1419 1419 1418 1418 1418 1418 1419 1419 1420 1421 1421 1422 1422 1422 1423 1423 1424 1425 1426 1427 1428 1429 1430 1430 1431 1431 1432 1434 1436 1437 1438 1439 1441 1442
1421 1420 1418 1417 1417 1417 1416 1416 1416 1416 1415 1415 1414 1414 1414 1414 1414 1415 1415 1416 1416 1417 1417 1417 1418 1419 1419 1420 1421 1422 1423 1423 1424 1424 1425 1426 1428 1429 1430 1431 1432 1433 1435
1419 1417 1416 1415 1414 1413 1413 1413 1412 1412 1412 1412 1411 1411 1410 1409 1409 1410 1410 1411 1411 1412 1412 1412 1413 1413 1413 1414 1415 1415 1416 1417 1418 1419 1419 1420 1421 1423 1424 1425 1426 1427 1428
1417 1415 1414 1413 1412 1411 1410 1409 1409 1409 1408 1408 1407 1407 1406 1405 1405 1405 1405 1405 1406 1406 1407 1406 1407 1407 1408 1408 1409 1410 1411 1411 1412 1413 1414 1415 1416 1417 1418 1419 1420 1421 1423
1415 1413 1412 1411 1410 1408 1407 1406 1405 1405 1405 1404 1403 1403 1402 1401 1400 1400 1400 1400 1401 1401 1401 1401 1401 1402 1402 1403 1404 1404 1405 1406 1407 1408 1408 1409 1411 1411 1412 1413 1414 1416 1417
1413 1412 1410 1409 1408 1406 1405 1404 1403 1402 1400 1399 1399 1399 1398 1397 1396 1396 1396 1396 1396 1396 1396 1396 1396 1397 1397 1398 1399 1399 1400 1401 1401 1402 1403 1404 1405 1406 1407 1408 1409 1410 1411
1412 1410 1409 1407 1406 1405 1403 1402 1401 1400 1398 1397 1396 1395 1394 1393 1392 1392 1392 1392 1391 1391 1391 1391 1392 1392 1393 1393 1394 1394 1395 1395 1396 1397 1398 1399 1399 1400 1401 1402 1404 1405 1406
1410 1408 1407 1405 1404 1403 1401 1400 1399 1398 1396 1395 1394 1392 1391 1390 1389 1388 1388 1388 1388 1387 1387 1387 1387 1388 1388 1388 1389 1389 1390 1390 1391 1392 1393 1394 1394 1395 1396 1397 1398 1399 1400
1408 1406 1405 1404 1402 1401 1400 1398 1397 1396 1394 1393 1391 1390 1389 1388 1386 1386 1385 1384 1384 1383 1383 1383 1383 1383 1384 1384 1384 1384 1384 1385 1386 1387 1387 1388 1389 1389 1390 1391 1393 1394 1396
1406 1405 1404 1402 1400 1399 1398 1396 1395 1393 1392 1390 1389 1388 1387 1385 1384 1383 1382 1381 1380 1380 1379 1379 1379 1379 1379 1379 1380 1380 1380 1381 1381 1382 1382 1383 1383 1384 1385 1386 1388 1389 1390
1404 1403 1402 1400 1398 1397 1395 1394 1393 1391 1390 1388 1386 1385 1384 1382 1381 1380 1379 1378 1377 1376 1375 1375 1374 1374 1374 1375 1375 1376 1376 1376 1377 1377 1377 1378 1378 1379 1380 1381 1382 1383 1385
1402 1401 1399 1398 1396 1395 1393 1391 1390 1389 1387 1385 1384 1382 1381 1379 1378 1377 1376 1375 1374 1373 1372 1371 1371 1371 1371 1371 1371 1371 1371 1372 1372 1372 1372 1373 1373 1374 1375 1375 1377 1378 1379
1400 1399 1397 1395 1394 1392 1391 1389 1387 1386 1384 1382 1381 1379 1378 1376 1375 1374 1373 1372 1370 1369 1368 1368 1367 1367 1366 1366 1366 1367 1367 1367 1367 1367 1367 1368 1368 1369 1370 1370 1372 1373 1374
1398 1396 1394 1393 1391 1390 1388 1386 1384 1383 1381 1379 1378 1377 1375 1373 1372 1370 1369 1368 1367 1366 1365 1364 1363 1363 1362 1362 1362 1362 1362 1363 1363 1363 1363 1363 1363 1364 1365 1366 1367 1368 1369